McGregor, MN

11:02 PM CST on February 06, 2016 (GMT -0600)
McGregor

Weather History for KHZX - September, 2013

Change the Weather History Date:

Thursday, September 12, 2013

  Actual Average (KAIT) Record (KAIT)
Temperature  
Mean Temperature 55 °F -  
Max Temperature 68 °F 69 °F 87 °F (1970)
Min Temperature 42 °F 45 °F 26 °F (2007)
Degree Days  
Heating Degree Days 10    
Growing Degree Days 5 (Base 50)    
Moisture  
Dew Point 47 °F    
Average Humidity 77    
Maximum Humidity 100    
Minimum Humidity 40    
Precipitation  
Precipitation 0.00 in - - ()
Sea Level Pressure  
Sea Level Pressure 30.20 in    
Wind  
Wind Speed 6 mph (NNW)    
Max Wind Speed 20 mph    
Max Gust Speed 24 mph    
Visibility 10 miles    
Events      
Averages and records for this station are not official NWS values.
T = Trace of Precipitation, MM = Missing Value Source: NWS Daily Summary

Daily Weather History Graph

Daily Weather History Graph

Search for Another Location

Airport or City:

Trip Planner

Search our weather history database for the weather conditions in past years. The results will help you decide how hot, cold, wet, or windy it might be!

Date:

Astronomy

Sep. 12, 2013 Rise Set
Actual Time 6:47 AM CDT 7:30 PM CDT
Civil Twilight 6:17 AM CDT 8:00 PM CDT
Nautical Twilight 5:40 AM CDT 8:36 PM CDT
Astronomical Twilight 5:02 AM CDT 9:14 PM CDT
Moon 2:39 PM CDT (9/12) No Moon Set
Length of Visible Light 13h 43m
Length of Day
12h 42m
Waxing Crescent, 50% of the Moon is Illuminated
Sep 12
Waxing Crescent
Sep 12
First Quarter
Sep 19
Full
Sep 26
Last Quarter
Oct 4
New

Hourly Weather History & Observations

Time (CDT) Temp. Dew Point Humidity Pressure Visibility Wind Dir Wind Speed Gust Speed Precip Events Conditions
12:12 AM 53.6 °F 51.8 °F 94% 30.12 in 10.0 mi NW 3.5 mph - N/A   Clear
12:32 AM 53.6 °F 50.0 °F 88% 30.12 in 10.0 mi WNW 3.5 mph - N/A   Clear
12:52 AM 53.6 °F 51.8 °F 94% 30.13 in 10.0 mi NW 6.9 mph - N/A   Clear
1:12 AM 53.6 °F 50.0 °F 88% 30.13 in 10.0 mi NW 6.9 mph - N/A   Clear
1:32 AM 51.8 °F 50.0 °F 94% 30.13 in 10.0 mi NW 5.8 mph - N/A   Clear
1:51 AM 51.8 °F 50.0 °F 94% 30.13 in 10.0 mi NW 5.8 mph - N/A   Clear
2:12 AM 51.8 °F 50.0 °F 94% 30.13 in 10.0 mi NW 3.5 mph - N/A   Clear
2:33 AM 51.8 °F 50.0 °F 94% 30.13 in 10.0 mi NNW 4.6 mph - N/A   Clear
2:53 AM 51.8 °F 50.0 °F 94% 30.13 in 10.0 mi NW 5.8 mph - N/A   Clear
3:12 AM 51.8 °F 50.0 °F 94% 30.13 in 10.0 mi NW 4.6 mph - N/A   Clear
3:32 AM 51.8 °F 50.0 °F 94% 30.14 in 10.0 mi NW 5.8 mph - N/A   Clear
3:53 AM 51.8 °F 50.0 °F 94% 30.14 in 10.0 mi NW 3.5 mph - N/A   Clear
4:13 AM 50.0 °F 50.0 °F 100% 30.13 in 10.0 mi Calm Calm - N/A   Clear
4:33 AM 48.2 °F 46.4 °F 93% 30.14 in 5.0 mi Calm Calm - N/A   Clear
4:53 AM 46.4 °F 44.6 °F 93% 30.15 in 1.0 mi Calm Calm - N/A   Unknown
5:13 AM 50.0 °F 50.0 °F 100% 30.15 in 10.0 mi NW 5.8 mph - N/A   Clear
5:33 AM 51.8 °F 50.0 °F 94% 30.16 in 10.0 mi NW 6.9 mph - N/A   Clear
5:52 AM 50.0 °F 48.2 °F 94% 30.15 in 10.0 mi NNW 3.5 mph - N/A   Clear
6:12 AM 50.0 °F 48.2 °F 94% 30.16 in 10.0 mi NW 4.6 mph - N/A   Clear
6:32 AM 48.2 °F 46.4 °F 93% 30.16 in 10.0 mi NNW 3.5 mph - N/A   Clear
6:53 AM 48.2 °F 46.4 °F 93% 30.18 in 10.0 mi NNW 3.5 mph - N/A   Clear
7:13 AM 48.2 °F 46.4 °F 93% 30.18 in 10.0 mi Calm Calm - N/A   Clear
7:32 AM 50.0 °F 48.2 °F 94% 30.19 in 10.0 mi Calm Calm - N/A   Scattered Clouds
7:52 AM 51.8 °F 50.0 °F 94% 30.20 in 10.0 mi NW 3.5 mph - N/A   Scattered Clouds
8:13 AM 51.8 °F 51.8 °F 100% 30.20 in 10.0 mi NNW 4.6 mph - N/A   Clear
8:32 AM 53.6 °F 51.8 °F 94% 30.20 in 10.0 mi North 5.8 mph - N/A   Scattered Clouds
8:53 AM 53.6 °F 51.8 °F 94% 30.20 in 10.0 mi NNW 9.2 mph - N/A   Overcast
9:12 AM 53.6 °F 51.8 °F 94% 30.22 in 10.0 mi North 9.2 mph - N/A   Overcast
9:32 AM 53.6 °F 51.8 °F 94% 30.22 in 10.0 mi NNW 6.9 mph - N/A   Overcast
9:53 AM 53.6 °F 51.8 °F 94% 30.22 in 10.0 mi NNW 8.1 mph - N/A   Overcast
10:13 AM 55.4 °F 51.8 °F 88% 30.23 in 10.0 mi NNW 9.2 mph - N/A   Mostly Cloudy
10:33 AM 57.2 °F 51.8 °F 82% 30.23 in 10.0 mi NNW 9.2 mph - N/A   Mostly Cloudy
10:51 AM 59.0 °F 51.8 °F 77% 30.23 in 10.0 mi NNW 5.8 mph - N/A   Mostly Cloudy
11:13 AM 60.8 °F 50.0 °F 68% 30.23 in 10.0 mi NNW 10.4 mph - N/A   Mostly Cloudy
11:33 AM 62.6 °F 51.8 °F 68% 30.23 in 10.0 mi NW 8.1 mph - N/A   Mostly Cloudy
11:52 AM 62.6 °F 50.0 °F 63% 30.23 in 10.0 mi North 9.2 mph - N/A   Scattered Clouds
12:11 PM 64.4 °F 48.2 °F 56% 30.23 in 10.0 mi North 16.1 mph 23.0 mph N/A   Scattered Clouds
12:33 PM 64.4 °F 46.4 °F 52% 30.23 in 10.0 mi NW 15.0 mph 23.0 mph N/A   Scattered Clouds
12:53 PM 62.6 °F 48.2 °F 59% 30.23 in 10.0 mi NNW 16.1 mph - N/A   Scattered Clouds
1:12 PM 62.6 °F 48.2 °F 59% 30.23 in 10.0 mi North 11.5 mph - N/A   Overcast
1:33 PM 64.4 °F 48.2 °F 56% 30.22 in 10.0 mi NNW 16.1 mph 21.9 mph N/A   Scattered Clouds
1:52 PM 66.2 °F 46.4 °F 49% 30.22 in 10.0 mi NW 15.0 mph 19.6 mph N/A   Clear
2:13 PM 66.2 °F 46.4 °F 49% 30.22 in 10.0 mi NNW 19.6 mph 23.0 mph N/A   Scattered Clouds
2:31 PM 64.4 °F 44.6 °F 49% 30.22 in 10.0 mi NNW 17.3 mph 23.0 mph N/A   Scattered Clouds
2:53 PM 68.0 °F 44.6 °F 43% 30.22 in 10.0 mi NNW 17.3 mph 24.2 mph N/A   Scattered Clouds
3:12 PM 64.4 °F 44.6 °F 49% 30.21 in 10.0 mi North 15.0 mph 21.9 mph N/A   Scattered Clouds
3:33 PM 68.0 °F 42.8 °F 40% 30.21 in 10.0 mi NNW 17.3 mph 21.9 mph N/A   Scattered Clouds
3:53 PM 64.4 °F 42.8 °F 45% 30.21 in 10.0 mi North 15.0 mph 24.2 mph N/A   Scattered Clouds
4:13 PM 64.4 °F 42.8 °F 45% 30.22 in 10.0 mi NW 12.7 mph - N/A   Scattered Clouds
4:33 PM 64.4 °F 42.8 °F 45% 30.22 in 10.0 mi NNW 16.1 mph 23.0 mph N/A   Mostly Cloudy
4:53 PM 64.4 °F 42.8 °F 45% 30.21 in 10.0 mi North 15.0 mph 21.9 mph N/A   Scattered Clouds
5:13 PM 64.4 °F 44.6 °F 49% 30.21 in 10.0 mi North 10.4 mph 17.3 mph N/A   Scattered Clouds
5:32 PM 62.6 °F 44.6 °F 52% 30.22 in 10.0 mi North 10.4 mph 16.1 mph N/A   Mostly Cloudy
5:53 PM 64.4 °F 44.6 °F 49% 30.22 in 10.0 mi North 9.2 mph 16.1 mph N/A   Scattered Clouds
6:13 PM 62.6 °F 42.8 °F 48% 30.22 in 10.0 mi North 11.5 mph - N/A   Clear
6:33 PM 62.6 °F 44.6 °F 52% 30.22 in 10.0 mi NNW 8.1 mph - N/A   Clear
6:53 PM 62.6 °F 44.6 °F 52% 30.22 in 10.0 mi North 6.9 mph - N/A   Clear
7:13 PM 60.8 °F 44.6 °F 55% 30.22 in 10.0 mi North 5.8 mph - N/A   Clear
7:33 PM 57.2 °F 44.6 °F 63% 30.22 in 10.0 mi NNW 3.5 mph - N/A   Clear
7:53 PM 53.6 °F 44.6 °F 72% 30.22 in 10.0 mi NNW 5.8 mph - N/A   Clear
8:13 PM 53.6 °F 44.6 °F 72% 30.23 in 10.0 mi NNW 4.6 mph - N/A   Clear
8:33 PM 51.8 °F 44.6 °F 76% 30.24 in 10.0 mi North 3.5 mph - N/A   Clear
8:52 PM 51.8 °F 44.6 °F 76% 30.24 in 10.0 mi Calm Calm - N/A   Clear
9:10 PM 51.8 °F 44.6 °F 76% 30.24 in 10.0 mi Calm Calm - N/A   Clear
9:32 PM 50.0 °F 44.6 °F 82% 30.24 in 10.0 mi Calm Calm - N/A   Clear
9:52 PM 48.2 °F 44.6 °F 87% 30.25 in 10.0 mi Calm Calm - N/A   Clear
10:12 PM 46.4 °F 44.6 °F 93% 30.25 in 10.0 mi Calm Calm - N/A   Clear
10:32 PM 46.4 °F 42.8 °F 87% 30.25 in 10.0 mi Calm Calm - N/A   Clear
10:52 PM 44.6 °F 42.8 °F 93% 30.25 in 10.0 mi Calm Calm - N/A   Clear
11:11 PM 42.8 °F 41.0 °F 93% 30.26 in 10.0 mi Calm Calm - N/A   Clear
11:33 PM 44.6 °F 42.8 °F 93% 30.26 in 10.0 mi Calm Calm - N/A   Clear
11:53 PM 42.8 °F 41.0 °F 93% 30.26 in 10.0 mi Calm Calm - N/A   Clear